Regional Weather Roundup
Issued by NWS Boston, MA

Home | Current Version | Previous Version | Text Only | Print | Product List | Glossary On
Versions: 1 2 3 4 5 6 7 8 9 10 11 12 13 14 15 16 17 18 19 20 21 22 23 24 25 26 27 28 29 30 31 32 33 34 35 36 37 38 39 40 41 42 43 44 45 46 47 48 49 50
000
ASUS41 KBOX 120710
RWRBOX

REGIONAL WEATHER ROUNDUP
NATIONAL WEATHER SERVICE TAUNTON MA
200 AM EST TUE DEC 12 2017

NOTE:  "FAIR" INDICATES FEW OR NO CLOUDS BELOW 12,000 FEET WITH NO
SIGNIFICANT WEATHER AND/OR OBSTRUCTIONS TO VISIBILITY.

MAZALL-120800-
EASTERN MASSACHUSETTS

CITY           SKY/WX    TMP DP  RH WIND       PRES   REMARKS
BOSTON         CLOUDY    35  24  64 SE7       29.97F WCI  29
BEVERLY        CLOUDY    29  24  82 CALM      29.96F
LAWRENCE       CLOUDY    32  22  66 NE5       29.98F WCI  27
BEDFORD        CLOUDY    27  24  89 CALM      29.95F
BLUE HILL        N/A     32  18  56 SE7       29.92F WCI  26
NORWOOD        CLOUDY    30  26  85 W3        29.97F
MARSHFIELD     CLOUDY    32  28  86 CALM      29.96F
PLYMOUTH       CLOUDY    32  28  85 E3        29.96F
TAUNTON        CLOUDY    30  28  92 CALM      29.96F
NEW BEDFORD    MOCLDY    29  29 100 CALM      29.95F
$$

MAZALL-120800-
CAPE COD AND THE ISLANDS

CITY           SKY/WX    TMP DP  RH WIND       PRES   REMARKS
FALMOUTH       CLOUDY    32  25  74 E7        29.97F WCI  26
HYANNIS        CLOUDY    31  28  89 CALM      29.96F
CHATHAM        CLOUDY    33  29  85 E3        29.98F
PROVINCETOWN   CLOUDY    35  23  61 E6        29.98F WCI  30
NANTUCKET      CLOUDY    39  32  76 SE9       29.96F
MARTHAS VNYRD  CLOUDY     2  32 100 E6        29.96F WCI  -9
$$

MAZALL-120800-
CENTRAL AND WESTERN MASSACHUSETTS

CITY           SKY/WX    TMP DP  RH WIND       PRES   REMARKS
WORCESTER      CLOUDY    29  17  61 E5        29.91F WCI  24
FITCHBURG      CLOUDY    31  24  75 CALM      29.96F
ORANGE         FLURRIES  26  25  96 CALM      29.93S
SPRINGFIELD    FLURRIES  30  25  80 CALM      29.92S
WESTFIELD      CLOUDY    30  25  81 N3        29.92F
NORTH ADAMS    LGT SNOW  28  23  81 NE6       29.88F WCI  22
PITTSFIELD     LGT SNOW  28  22  78 VRB3      29.83F
$$

RIZALL-120800-
RHODE ISLAND

CITY           SKY/WX    TMP DP  RH WIND       PRES   REMARKS
PROVIDENCE     CLOUDY    33  27  78 CALM      29.96F
NEWPORT        CLOUDY    36  25  64 E5        29.94F
BLOCK ISLAND     N/A    N/A N/A N/A MISG        N/A
SMITHFIELD     CLOUDY    31  22  69 SE5       29.94F WCI  26
WESTERLY       CLOUDY    34  26  72 CALM      29.95F
$$

CTZALL-120800-
CONNECTICUT

CITY           SKY/WX    TMP DP  RH WIND       PRES   REMARKS
BRADLEY INTL   CLOUDY    30  24  78 NW3       29.93F
HARTFORD       CLOUDY    32  25  75 CALM      29.93F
BRIDGEPORT     CLOUDY    40  26  57 S8        29.91F
DANBURY        CLOUDY    33  23  66 SE3       29.90F
GROTON         CLOUDY    36  26  67 NE5       29.93F
NEW HAVEN      CLOUDY    40  26  57 S7        29.91F
CHESTER        FAIR      34  21  60 CALM      29.91F
MERIDEN        CLOUDY    31  25  78 CALM      29.92F
WILLIMANTIC    CLOUDY    31  25  78 CALM      29.94F
OXFORD         CLOUDY    32  21  64 E5        29.89F WCI  27
$$

MEZ002-015-021-024-NHZ003-005-008-011-012-014-VTZ005-008-120800-
NORTHERN NEW ENGLAND

CITY           SKY/WX    TMP DP  RH WIND       PRES   REMARKS
PORTLAND ME    CLOUDY    25  16  68 NE9       30.02F WCI  15
BANGOR ME      CLOUDY    14   9  80 N7        30.08R WCI   4
CONCORD NH     CLOUDY    27  21  78 CALM      29.96F
MANCHESTER NH  CLOUDY    30  20  66 CALM      29.95F
NASHUA NH      CLOUDY    29  24  82 NW3       29.97F
PORTSMOUTH NH  CLOUDY    30  22  73 NE6       29.96F WCI  24
JAFFREY NH     FLURRIES  28  21  75 VRB5      29.91S WCI  23
KEENE NH       FLURRIES  27  23  85 CALM      29.93S
BURLINGTON VT  CLOUDY    20  14  77 E3        29.88F
MT. WASHINGTON SNOW       3   3 100 S31         N/A  VSB 1/16WCI -22
$$

NYZ052-076-120800-
EASTERN NEW YORK

CITY           SKY/WX    TMP DP  RH WIND       PRES   REMARKS
ALBANY         LGT SNOW  30  21  69 VRB3      29.87F
NEW YORK CITY  CLOUDY    39  27  62 E7        29.87F
$$

ANZALL-120800-
MARINE OBSERVATIONS

STATION/POSITION TIME  TEMP    WIND        PRES    VSBY  WAVE
                       AIR SEA DIR/SP/G                  HT/PER
                 (UTC) (F)     (DEG/KT/KT) (MB)    (MI)  (FT/S)
BOSTON BUOY      0650   40 48  120/  8/ 10 1013.9F         1/10
BUZZARDS BAY     0600   40     110/ 12/ 14 1015.2F
NANTUCKET SOUND  0650   40 44  110/ 10/ 12 1014.8F         1/ 3
MASS BAY-STELLWA 0604   38 47  130/  8/ 10 1015.1F         2/11
ISLE OF SHOALS   0600   36     100/  9/ 11 1014.9F
S OF BLOCK IS    0643      53                N/A           4/ 9
$$

......................KEY.........................
  SKY/WX - SKY CONDITION/PRESENT WEATHER
  TMP    - TEMPERATURE IN FAHRENHEIT
  DWPT   - DEWPOINT IN FAHRENHEIT
  RH     - RELATIVE HUMIDITY IN PERCENT
  WIND   - DIRECTION AND SPEED IN MPH
  PRES   - MEAN SEA LEVEL PRESSURE IN INCHES OF HG
  WCI    - WIND CHILL INDEX
  VSB    - VISIBILITY IN MILES
  HX     - HEAT INDEX
  TC     - TEMPERATURE IN CELSIUS
  VRB    - VARIABLE WIND DIRECTION
  N/A    - NOT AVAILABLE



USA.gov is the U.S. government's official web portal to all federal, state and local government web resources and services.